Location: Alafon
(8.4500°N, 4.2333°E)
Time: 14:46:12
(UTC+00:00)

Vanguard 1 Rocket - Pass Details

Date: 02 August 2021
Orbit: 650 x 4226 km, 34.3° (Epoch: 23 September)

Event Time Altitude Azimuth Distance (km) Brightness Sun altitude
Exits shadow 02:51:09 13° 184° (S) 6,089 11.3 -38.0°
Maximum altitude 03:04:25 23° 144° (SE) 6,096 11.5 -35.2°
Drops below altitude 10° 03:22:29 10° 99° (E) 7,376 12.6 -31.2°
Sets 03:30:17 0° 87° (E) 8,169 13.2 -29.5°
